Weather History for KSAF - November, 2012

Change the Weather History Date:

Saturday, November 17, 2012

  Actual Average Record
Temperature  
Mean Temperature 40 °F -  
Max Temperature 55 °F 53 °F 68 °F (2008)
Min Temperature 25 °F 24 °F 12 °F (2014)
Degree Days  
Heating Degree Days 25    
Moisture  
Dew Point 19 °F    
Average Humidity 43    
Maximum Humidity 64    
Minimum Humidity 23    
Precipitation  
Precipitation 0.00 in - - ()
Sea Level Pressure  
Sea Level Pressure 30.15 in    
Wind  
Wind Speed 6 mph (North)    
Max Wind Speed 13 mph    
Max Gust Speed -    
Visibility 10 miles    
Events      
Averages and records for this station are not official NWS values.
T = Trace of Precipitation, MM = Missing Value Source: NWS Daily Summary

Daily Weather History Graph

Daily Weather History Graph

Search for Another Location

Airport or City:

Trip Planner

Search our weather history database for the weather conditions in past years. The results will help you decide how hot, cold, wet, or windy it might be!

Date:

Astronomy

Nov. 17, 2012 Rise Set
Actual Time 6:42 AM MST 4:55 PM MST
Civil Twilight 6:15 AM MST 5:23 PM MST
Nautical Twilight 5:44 AM MST 5:54 PM MST
Astronomical Twilight 5:14 AM MST 6:24 PM MST
Moon 10:29 AM MST (11/17) 9:08 PM MST (11/17)
Length of Visible Light 11h 07m
Length of Day
10h 13m
Waxing Crescent, 21% of the Moon is Illuminated
Nov 17
Waxing Crescent
Nov 20
First Quarter
Nov 28
Full
Dec 6
Last Quarter
Dec 13
New

Hourly Weather History & Observations

Time (MST) Temp. Windchill Dew Point Humidity Pressure Visibility Wind Dir Wind Speed Gust Speed Precip Events Conditions
12:53 AM 33.1 °F 28.7 °F 15.1 °F 48% 30.17 in 10.0 mi NNE 4.6 mph - N/A   Clear
1:53 AM 33.1 °F 26.1 °F 15.1 °F 48% 30.17 in 10.0 mi NNE 8.1 mph - N/A   Clear
2:53 AM 30.9 °F 24.3 °F 15.1 °F 52% 30.16 in 10.0 mi NNE 6.9 mph - N/A   Clear
3:53 AM 25.0 °F 19.3 °F 12.9 °F 60% 30.17 in 10.0 mi North 4.6 mph - N/A   Clear
4:53 AM 28.0 °F 20.8 °F 14.0 °F 56% 30.18 in 10.0 mi NNE 6.9 mph - N/A   Clear
6:53 AM 30.0 °F 23.2 °F 15.1 °F 54% 30.22 in 10.0 mi North 6.9 mph - N/A   Clear
7:53 AM 36.0 °F 29.6 °F 16.0 °F 44% 30.21 in 10.0 mi North 8.1 mph - N/A   Clear
8:53 AM 43.0 °F 36.4 °F 17.1 °F 35% 30.21 in 10.0 mi North 12.7 mph - N/A   Clear
9:53 AM 44.1 °F 40.1 °F 17.1 °F 34% 30.21 in 10.0 mi North 6.9 mph - N/A   Clear
10:53 AM 50.0 °F - 17.1 °F 27% 30.20 in 10.0 mi Calm Calm - N/A   Clear
11:53 AM 55.0 °F - 17.1 °F 23% 30.14 in 10.0 mi WSW 9.2 mph - N/A   Clear
12:53 PM 53.1 °F - 17.1 °F 24% 30.14 in 10.0 mi SW 8.1 mph - N/A   Clear
1:53 PM 53.1 °F - 19.0 °F 26% 30.12 in 10.0 mi SW 6.9 mph - N/A   Clear
2:53 PM 53.1 °F - 19.9 °F 27% 30.12 in 10.0 mi SW 6.9 mph - N/A   Clear
3:53 PM 52.0 °F - 21.0 °F 30% 30.14 in 10.0 mi South 4.6 mph - N/A   Clear
4:53 PM 50.0 °F - 21.0 °F 32% 30.13 in 10.0 mi Calm Calm - N/A   Clear
5:53 PM 48.0 °F - 21.0 °F 34% 30.12 in 10.0 mi ESE 3.5 mph - N/A   Clear
6:53 PM 41.0 °F - 21.0 °F 45% 30.17 in 10.0 mi Calm Calm - N/A   Clear
7:53 PM 39.0 °F 35.7 °F 21.9 °F 50% 30.14 in 10.0 mi North 4.6 mph - N/A   Mostly Cloudy
8:53 PM 39.0 °F 34.8 °F 24.1 °F 55% 30.12 in 10.0 mi North 5.8 mph - N/A   Clear
9:53 PM 37.9 °F - 24.1 °F 57% 30.12 in 10.0 mi Calm Calm - N/A   Clear
10:53 PM 34.0 °F 29.8 °F 23.0 °F 64% 30.11 in 10.0 mi North 4.6 mph - N/A   Clear
11:53 PM 36.0 °F 30.3 °F 23.0 °F 59% 30.06 in 10.0 mi NNE 6.9 mph - N/A   Clear